When you browse on this site, cookies collect data to enhance your experience and personalize the content and advertising you see.
Visit our Privacy Policy to learn more. By continuing to use the site, you agree to this use of cookies and data.
  • In Hungary
  • List of Countries
  • For 7 days
  • Water Temperature
  • Satellite Maps
  • Weather Map
  • News
  • Weather Widgets
  • user-avatar
    Login

    Hourly Weather Philadelphia

    Today, 22 February, Friday

    Time Temperature Precipitation Wind Pressure Humidity
    00:00 +5°C° 0 mm 2 mps 766 mmHg 73%
    01:00 +6°C° 0 mm 2 mps 766 mmHg 67%
    02:00 +5°C° 0 mm 2 mps 766 mmHg 67%
    03:00 +4°C° 0 mm 3 mps 767 mmHg 66%
    04:00 +3°C° 0 mm 3 mps 767 mmHg 66%
    05:00 +3°C° 0 mm 3 mps 768 mmHg 67%
    06:00 +3°C° 0 mm 2 mps 769 mmHg 68%
    07:00 +3°C° 0 mm 2 mps 769 mmHg 69%
    08:00 +3°C° 0 mm 2 mps 770 mmHg 65%
    09:00 +4°C° 0 mm 2 mps 770 mmHg 61%
    10:00 +4°C° 0 mm 2 mps 770 mmHg 57%
    11:00 +5°C° 0 mm 2 mps 771 mmHg 55%
    12:00 +6°C° 0 mm 2 mps 771 mmHg 53%
    13:00 +6°C° 0 mm 2 mps 771 mmHg 50%
    14:00 +6°C° 0 mm 2 mps 771 mmHg 52%
    15:00 +6°C° 0 mm 2 mps 771 mmHg 53%
    16:00 +6°C° 0 mm 2 mps 771 mmHg 55%
    17:00 +6°C° 0 mm 2 mps 772 mmHg 58%
    18:00 +5°C° 0 mm 2 mps 772 mmHg 62%
    19:00 +6°C° 0 mm 1 mps 772 mmHg 65%
    20:00 +5°C° 0 mm 1 mps 773 mmHg 67%
    21:00 +5°C° 0 mm 1 mps 773 mmHg 68%
    22:00 +4°C° 0 mm 1 mps 773 mmHg 70%
    23:00 +4°C° 0 mm 1 mps 773 mmHg 70%

    Tomorrow, 23 February, Saturday

    Time Temperature Precipitation Wind Pressure Humidity
    00:00 +4°C° 0 mm 1 mps 773 mmHg 70%
    01:00 +3°C° 0 mm 1 mps 774 mmHg 69%
    02:00 +3°C° 0 mm 1 mps 773 mmHg 69%
    03:00 +3°C° 0 mm 1 mps 773 mmHg 69%
    04:00 +1°C° 0 mm 2 mps 773 mmHg 68%
    05:00 +2°C° 0 mm 1 mps 773 mmHg 69%
    06:00 +2°C° 0 mm 1 mps 773 mmHg 70%
    07:00 +2°C° 0 mm 1 mps 774 mmHg 71%
    08:00 +3°C° 0 mm 1 mps 774 mmHg 70%
    09:00 +3°C° 0 mm 2 mps 773 mmHg 68%
    10:00 +4°C° 0 mm 2 mps 773 mmHg 67%
    11:00 +5°C° 0 mm 2 mps 773 mmHg 64%
    12:00 +6°C° 0 mm 2 mps 773 mmHg 62%
    13:00 +7°C° 0 mm 2 mps 772 mmHg 59%
    14:00 +7°C° 0 mm 2 mps 771 mmHg 61%
    15:00 +6°C° 0 mm 2 mps 771 mmHg 63%
    16:00 +6°C° 0 mm 2 mps 770 mmHg 64%
    17:00 +6°C° 0 mm 2 mps 770 mmHg 67%
    18:00 +6°C° 0 mm 2 mps 769 mmHg 69%
    19:00 +5°C° 0 mm 2 mps 769 mmHg 72%
    20:00 +5°C° 0 mm 2 mps 768 mmHg 74%
    21:00 +4°C° 0 mm 3 mps 768 mmHg 77%
    22:00 +4°C° 0 mm 3 mps 767 mmHg 79%
    23:00 +4°C° 0.4 mm 3 mps 766 mmHg 83%

    Day after tomorrow, 24 February, Sunday

    Time Temperature Precipitation Wind Pressure Humidity
    00:00 +4°C° 0.4 mm 3 mps 765 mmHg 87%
    01:00 +4°C° 0.4 mm 3 mps 764 mmHg 91%
    02:00 +5°C° 0.9 mm 3 mps 762 mmHg 93%
    03:00 +5°C° 0.9 mm 3 mps 760 mmHg 95%
    04:00 +7°C° 0.9 mm 3 mps 759 mmHg 97%
    05:00 +8°C° 4.2 mm 3 mps 757 mmHg 97%
    06:00 +8°C° 4.2 mm 4 mps 756 mmHg 97%
    07:00 +10°C° 4.2 mm 4 mps 754 mmHg 97%
    08:00 +10°C° 3.5 mm 4 mps 753 mmHg 97%
    09:00 +10°C° 3.5 mm 3 mps 752 mmHg 97%
    10:00 +10°C° 3.5 mm 3 mps 751 mmHg 97%
    11:00 +11°C° 0.1 mm 3 mps 750 mmHg 96%
    12:00 +12°C° 0.1 mm 4 mps 749 mmHg 95%
    13:00 +13°C° 0.1 mm 4 mps 747 mmHg 94%
    14:00 +14°C° 0.2 mm 5 mps 747 mmHg 80%
    15:00 +15°C° 0.2 mm 7 mps 747 mmHg 66%
    16:00 +15°C° 0.2 mm 9 mps 747 mmHg 52%
    17:00 +12°C° 0 mm 9 mps 748 mmHg 52%
    18:00 +10°C° 0 mm 8 mps 749 mmHg 52%
    19:00 +9°C° 0 mm 8 mps 750 mmHg 52%
    20:00 +7°C° 0 mm 8 mps 750 mmHg 52%
    21:00 +6°C° 0 mm 9 mps 751 mmHg 52%
    22:00 +5°C° 0 mm 9 mps 751 mmHg 52%
    23:00 +3°C° 0 mm 9 mps 751 mmHg 51%

    25 February, Monday

    Time Temperature Precipitation Wind Pressure Humidity
    00:00 +3°C° 0 mm 9 mps 752 mmHg 50%
    01:00 +2°C° 0 mm 9 mps 752 mmHg 50%
    02:00 +1°C° 0 mm 9 mps 753 mmHg 48%
    03:00 0°C° 0 mm 9 mps 753 mmHg 47%
    04:00 -1°C° 0 mm 9 mps 754 mmHg 46%
    05:00 -1°C° 0 mm 9 mps 755 mmHg 46%
    06:00 -1°C° 0 mm 8 mps 756 mmHg 46%
    07:00 -2°C° 0 mm 8 mps 757 mmHg 45%
    08:00 -1°C° 0 mm 8 mps 758 mmHg 44%
    09:00 0°C° 0 mm 9 mps 759 mmHg 42%
    10:00 0°C° 0 mm 9 mps 760 mmHg 41%
    11:00 +1°C° 0 mm 9 mps 761 mmHg 39%
    12:00 +1°C° 0 mm 9 mps 761 mmHg 37%
    13:00 +2°C° 0 mm 9 mps 762 mmHg 35%
    14:00 +1°C° 0 mm 9 mps 762 mmHg 34%
    15:00 +1°C° 0 mm 9 mps 763 mmHg 33%
    16:00 +1°C° 0 mm 9 mps 763 mmHg 33%
    17:00 0°C° 0 mm 8 mps 765 mmHg 34%
    18:00 -1°C° 0 mm 7 mps 766 mmHg 36%
    19:00 -2°C° 0 mm 7 mps 767 mmHg 38%
    20:00 -3°C° 0 mm 7 mps 767 mmHg 38%
    21:00 -4°C° 0 mm 6 mps 768 mmHg 38%
    22:00 -4°C° 0 mm 6 mps 769 mmHg 38%
    23:00 -5°C° 0 mm 6 mps 769 mmHg 37%

    26 February, Tuesday

    Time Temperature Precipitation Wind Pressure Humidity
    00:00 -5°C° 0 mm 5 mps 770 mmHg 37%
    01:00 -5°C° 0 mm 5 mps 770 mmHg 36%
    02:00 -6°C° 0 mm 5 mps 770 mmHg 36%
    03:00 -6°C° 0 mm 5 mps 771 mmHg 37%
    04:00 -5°C° 0 mm 4 mps 771 mmHg 37%
    05:00 -5°C° 0 mm 4 mps 771 mmHg 37%
    06:00 -5°C° 0 mm 4 mps 772 mmHg 38%
    07:00 -5°C° 0 mm 4 mps 772 mmHg 38%
    08:00 -4°C° 0 mm 4 mps 773 mmHg 37%
    09:00 -3°C° 0 mm 4 mps 773 mmHg 35%
    10:00 -2°C° 0 mm 4 mps 773 mmHg 34%
    11:00 -1°C° 0 mm 4 mps 773 mmHg 33%
    12:00 0°C° 0 mm 4 mps 772 mmHg 32%
    13:00 +1°C° 0 mm 4 mps 772 mmHg 32%
    14:00 +1°C° 0 mm 4 mps 771 mmHg 33%
    15:00 +1°C° 0 mm 4 mps 771 mmHg 34%
    16:00 +3°C° 0 mm 4 mps 771 mmHg 36%
    17:00 +2°C° 0 mm 3 mps 771 mmHg 39%
    18:00 +2°C° 0 mm 2 mps 771 mmHg 42%
    19:00 +2°C° 0 mm 1 mps 771 mmHg 45%
    20:00 +2°C° 0 mm 1 mps 771 mmHg 45%
    21:00 +3°C° 0 mm 1 mps 771 mmHg 45%
    22:00 +3°C° 0 mm 1 mps 771 mmHg 44%
    23:00 +1°C° 0 mm 2 mps 770 mmHg 45%

    27 February, Wednesday

    Time Temperature Precipitation Wind Pressure Humidity
    00:00 +1°C° 0 mm 2 mps 770 mmHg 45%
    01:00 -1°C° 0 mm 2 mps 769 mmHg 46%
    02:00 -1°C° 0 mm 3 mps 768 mmHg 47%
    03:00 -1°C° 0 mm 3 mps 768 mmHg 47%
    04:00 -1°C° 0 mm 3 mps 767 mmHg 48%
    05:00 -1°C° 0 mm 3 mps 766 mmHg 53%
    06:00 -1°C° 0 mm 3 mps 766 mmHg 58%
    07:00 -1°C° 0 mm 2 mps 765 mmHg 63%
    08:00 +2°C° 0 mm 2 mps 764 mmHg 62%
    09:00 +4°C° 0 mm 2 mps 764 mmHg 62%
    10:00 +5°C° 0 mm 2 mps 763 mmHg 61%
    11:00 +7°C° 0 mm 3 mps 762 mmHg 57%
    12:00 +8°C° 0 mm 4 mps 760 mmHg 54%
    13:00 +11°C° 0 mm 4 mps 759 mmHg 50%
    14:00 +12°C° 0 mm 4 mps 758 mmHg 51%
    15:00 +13°C° 0 mm 5 mps 757 mmHg 51%
    16:00 +13°C° 0 mm 5 mps 756 mmHg 52%
    17:00 +13°C° 0.2 mm 4 mps 756 mmHg 59%
    18:00 +12°C° 0.2 mm 4 mps 757 mmHg 66%
    19:00 +11°C° 0.2 mm 4 mps 757 mmHg 73%
    20:00 +10°C° 0 mm 5 mps 758 mmHg 72%
    21:00 +9°C° 0 mm 5 mps 758 mmHg 70%
    22:00 +8°C° 0 mm 5 mps 759 mmHg 68%
    23:00 +6°C° 0 mm 5 mps 760 mmHg 66%
    Show more